Weather History for Lebanon, NH

Change the Weather History Date:

Monday, November 12, 2012

  Actual Average Record
Temperature  
Mean Temperature 52 °F -  
Max Temperature 66 °F 45 °F 66 °F (2012)
Min Temperature 37 °F 30 °F 9 °F (1976)
Degree Days  
Heating Degree Days 14    
Growing Degree Days 2 (Base 50)    
Moisture  
Dew Point 44 °F    
Average Humidity 73    
Maximum Humidity 93    
Minimum Humidity 43    
Precipitation  
Precipitation 0.00 in - - ()
Sea Level Pressure  
Sea Level Pressure 30.29 in    
Wind  
Wind Speed 5 mph (South)    
Max Wind Speed 23 mph    
Max Gust Speed 34 mph    
Visibility 8 miles    
Events      
Averages and records for this station are not official NWS values.
T = Trace of Precipitation, MM = Missing Value Source: NWS Daily Summary

Daily Weather History Graph

Daily Weather History Graph

Search for Another Location

Airport:

Trip Planner

Search our weather history database for the weather conditions in past years. The results will help you decide how hot, cold, wet, or windy it might be!

Date:

Astronomy

Nov. 12, 2012 Rise Set
Actual Time 6:39 AM EST 4:26 PM EST
Civil Twilight 6:09 AM EST 4:57 PM EST
Nautical Twilight 5:34 AM EST 5:31 PM EST
Astronomical Twilight 5:00 AM EST 6:05 PM EST
Moon 5:00 AM EST (11/12) 3:30 PM EST (11/12)
Length of Visible Light 10h 48m
Length of Day
9h 46m
Waning Crescent, 2% of the Moon is Illuminated
Nov 12
Waning Crescent
Nov 13
New
Nov 20
First Quarter
Nov 28
Full
Dec 6
Last Quarter

Hourly Weather History & Observations

Time (EST) Temp. Windchill Dew Point Humidity Pressure Visibility Wind Dir Wind Speed Gust Speed Precip Events Conditions
12:53 AM 41.0 °F - 37.9 °F 89% 30.39 in 6.0 mi Calm Calm - N/A   Clear
1:53 AM 48.9 °F - 43.0 °F 80% 30.40 in 10.0 mi South 6.9 mph - N/A   Clear
2:53 AM 42.1 °F - 39.0 °F 89% 30.39 in 7.0 mi Calm Calm - N/A   Clear
3:53 AM 39.9 °F - 37.9 °F 93% 30.39 in 5.0 mi Calm Calm - N/A   Clear
4:53 AM 39.0 °F - 37.0 °F 93% 30.40 in 2.5 mi Calm Calm - N/A   Clear
5:01 AM 37.4 °F - 35.6 °F 93% 30.38 in 3.0 mi Calm Calm - N/A   Clear
5:11 AM 37.4 °F - 35.6 °F 93% 30.39 in 2.0 mi Calm Calm - N/A   Clear
5:27 AM 37.4 °F 33.8 °F 35.6 °F 93% 30.38 in 3.0 mi SSE 4.6 mph - N/A   Clear
5:53 AM 37.9 °F - 36.0 °F 93% 30.40 in 4.0 mi Calm Calm - N/A   Clear
6:32 AM 39.2 °F 35.9 °F 35.6 °F 87% 30.39 in 2.5 mi NE 4.6 mph - N/A   Clear
6:41 AM 37.4 °F - 35.6 °F 93% 30.39 in 0.8 mi Calm Calm - N/A   Clear
7:53 AM 39.9 °F - 37.9 °F 93% 30.41 in 5.0 mi Calm Calm - N/A   Clear
8:53 AM 46.9 °F - 41.0 °F 80% 30.39 in 7.0 mi Calm Calm - N/A   Clear
9:53 AM 55.0 °F - 44.1 °F 67% 30.37 in 9.0 mi Variable 6.9 mph - N/A   Clear
10:53 AM 60.1 °F - 44.1 °F 55% 30.35 in 10.0 mi WSW 5.8 mph - N/A   Clear
11:53 AM 64.0 °F - 43.0 °F 46% 30.31 in 10.0 mi SW 9.2 mph - N/A   Clear
12:53 PM 66.0 °F - 43.0 °F 43% 30.29 in 10.0 mi SSW 6.9 mph 20.7 mph N/A   Clear
1:53 PM 66.9 °F - 44.1 °F 44% 30.27 in 10.0 mi SSW 9.2 mph - N/A   Clear
2:53 PM 66.0 °F - 45.0 °F 47% 30.26 in 10.0 mi SW 6.9 mph - N/A   Clear
3:53 PM 62.1 °F - 46.0 °F 56% 30.27 in 10.0 mi SW 10.4 mph - N/A   Clear
4:53 PM 57.9 °F - 46.9 °F 67% 30.27 in 10.0 mi South 4.6 mph - N/A   Clear
5:53 PM 60.1 °F - 48.0 °F 64% 30.25 in 10.0 mi SSW 8.1 mph - N/A   Clear
6:33 PM 59.0 °F - 48.2 °F 67% 30.22 in 10.0 mi South 4.6 mph - N/A   Mostly Cloudy
6:53 PM 59.0 °F - 48.9 °F 69% 30.23 in 10.0 mi Variable 4.6 mph - N/A   Mostly Cloudy
7:22 PM 59.0 °F - 48.2 °F 67% 30.21 in 10.0 mi South 8.1 mph - N/A   Overcast
7:53 PM 60.1 °F - 50.0 °F 69% 30.19 in 10.0 mi South 6.9 mph - N/A   Overcast
8:09 PM 60.8 °F - 50.0 °F 68% 30.18 in 10.0 mi South 9.2 mph - N/A   Overcast
8:53 PM 61.0 °F - 51.1 °F 70% 30.16 in 10.0 mi South 23.0 mph 27.6 mph N/A   Mostly Cloudy
9:53 PM 62.1 °F - 52.0 °F 70% 30.14 in 10.0 mi South 15.0 mph 26.5 mph N/A   Overcast
10:45 PM 62.6 °F - 51.8 °F 68% 30.12 in 10.0 mi South 19.6 mph 34.5 mph N/A   Scattered Clouds
10:53 PM 62.1 °F - 52.0 °F 70% 30.11 in 10.0 mi South 20.7 mph 29.9 mph N/A   Partly Cloudy
11:53 PM 63.0 °F - 53.1 °F 70% 30.09 in 10.0 mi South 20.7 mph 31.1 mph N/A   Clear